EW4120 Weather Reports


Display with metric or nautical units.
time (UTC)temp
F
wind
direction
speed
MPH
gust
MPH
rain 1hr
in
rain 24hr
in
rain mn
in
humidity
%
barometer
mb
20260506033636 65 0.0 2.0 0.00 0.00 0.00 65 1014.5
20260506032536 65 0.0 1.0 0.00 0.00 0.00 64 1014.5
20260506031536 65 0.0 0.0 0.00 0.00 0.00 64 1014.5
20260506030516 66 0.0 1.0 0.00 0.00 0.00 63 1014.7
20260506025556 66 0.0 2.0 0.00 0.00 0.00 63 1014.7
20260506024556 66 0.0 1.0 0.00 0.00 0.00 62 1014.8
20260506023516 66 0.0 2.0 0.00 0.00 0.00 62 1015.0
20260506022516 67 0.0 1.0 0.00 0.00 0.00 61 1014.9
20260506021656 67 0.0 4.0 0.00 0.00 0.00 61 1015.0
20260506020616 67 0.0 1.0 0.00 0.00 0.00 61 1014.9
20260506015556 67 0.0 0.0 0.00 0.00 0.00 60 1014.7
20260506014616 67 0.0 0.0 0.00 0.00 0.00 60 1014.6
20260506013516 68 0.0 0.0 0.00 0.00 0.00 59 1014.6
20260506012556 68 0.0 0.0 0.00 0.00 0.00 59 1014.4
20260506011536 69 0.0 0.0 0.00 0.00 0.00 58 1014.4
20260506010536 69 0.0 1.0 0.00 0.00 0.00 56 1014.3
20260506005518 70 0.0 1.0 0.00 0.00 0.00 55 1014.1
20260506004518 70 0.0 2.0 0.00 0.00 0.00 54 1014.0
20260506003518 71 0.0 2.0 0.00 0.00 0.00 53 1013.9
20260506002538 71 0.0 1.0 0.00 0.00 0.00 52 1013.7
20260506001517 72 0.0 1.0 0.00 0.00 0.00 50 1013.7
20260506000638 73 0.0 2.0 0.00 0.00 0.00 49 1013.8
20260505235538 73 0.0 1.0 0.00 0.00 0.00 48 1013.6
20260505234518 74 293 1.0 5.0 0.00 0.00 0.00 47 1013.4
20260505233517 75 315 1.0 4.0 0.00 0.00 0.00 46 1013.5
20260505232557 75 0.0 2.0 0.00 0.00 0.00 45 1013.2
20260505231517 76 293 1.0 6.0 0.00 0.00 0.00 43 1013.3
20260505230517 78 315 1.0 6.0 0.00 0.00 0.00 41 1013.2
20260505225517 79 293 1.0 10.0 0.00 0.00 0.00 41 1013.3
20260505224517 79 293 2.0 8.0 0.00 0.00 0.00 41 1013.4
20260505223517 80 293 1.0 3.0 0.00 0.00 0.00 41 1013.5
20260505222537 79 315 2.0 6.0 0.00 0.00 0.00 40 1013.5
20260505221517 80 293 1.0 9.0 0.00 0.00 0.00 40 1013.7
20260505220537 80 293 1.0 6.0 0.00 0.00 0.00 41 1013.8
20260505215517 80 293 2.0 12.0 0.00 0.00 0.00 39 1013.7
20260505214557 81 315 1.0 5.0 0.00 0.00 0.00 39 1013.8
20260505213517 82 293 2.0 7.0 0.00 0.00 0.00 39 1013.8
20260505212517 82 315 2.0 6.0 0.00 0.00 0.00 38 1013.8
20260505211517 82 315 2.0 7.0 0.00 0.00 0.00 39 1013.9
20260505210537 82 293 2.0 7.0 0.00 0.00 0.00 38 1014.0
20260505204537 82 293 2.0 12.0 0.00 0.00 0.00 38 1014.0
20260505203658 82 113 1.0 5.0 0.00 0.00 0.00 38 1014.1
20260505202517 82 315 2.0 6.0 0.00 0.00 0.00 39 1014.1
20260505201537 81 315 3.0 7.0 0.00 0.00 0.00 40 1014.3
20260505200517 81 293 3.0 8.0 0.00 0.00 0.00 39 1014.4
20260505195517 82 90 1.0 6.0 0.00 0.00 0.00 38 1014.5
20260505194537 82 315 2.0 9.0 0.00 0.00 0.00 38 1014.9
20260505193517 82 270 2.0 6.0 0.00 0.00 0.00 42 1014.9
20260505192517 82 293 2.0 10.0 0.00 0.00 0.00 39 1015.0
20260505191537 81 293 2.0 11.0 0.00 0.00 0.00 45 1015.1
20260505190517 80 248 3.0 10.0 0.00 0.00 0.00 40 1015.4
20260505185517 81 113 2.0 6.0 0.00 0.00 0.00 41 1015.4
20260505184537 81 293 2.0 6.0 0.00 0.00 0.00 41 1015.7
20260505183517 81 293 1.0 6.0 0.00 0.00 0.00 42 1015.8
20260505182657 80 45 2.0 6.0 0.00 0.00 0.00 46 1015.9
20260505181517 79 90 1.0 5.0 0.00 0.00 0.00 44 1015.8
20260505180517 79 315 2.0 8.0 0.00 0.00 0.00 45 1016.0
20260505175517 79 270 2.0 6.0 0.00 0.00 0.00 45 1016.1
20260505174517 78 293 1.0 6.0 0.00 0.00 0.00 45 1016.0
20260505173517 78 315 2.0 10.0 0.00 0.00 0.00 46 1016.2
20260505172637 79 248 1.0 4.0 0.00 0.00 0.00 47 1016.4
20260505171517 78 90 1.0 3.0 0.00 0.00 0.00 47 1016.3
20260505170617 78 270 2.0 6.0 0.00 0.00 0.00 45 1016.3
20260505165537 78 315 2.0 5.0 0.00 0.00 0.00 45 1016.3
20260505164537 77 293 2.0 6.0 0.00 0.00 0.00 51 1016.5
20260505163517 77 23 2.0 9.0 0.00 0.00 0.00 49 1016.6
20260505162517 77 315 1.0 5.0 0.00 0.00 0.00 49 1016.6
20260505161517 76 113 2.0 7.0 0.00 0.00 0.00 49 1016.7
20260505160537 76 293 1.0 7.0 0.00 0.00 0.00 50 1016.8
20260505151517 73 0.0 3.0 0.00 0.00 0.00 59 1017.0
20260505150517 72 315 1.0 3.0 0.00 0.00 0.00 57 1017.1
20260505140537 68 315 1.0 6.0 0.00 0.00 0.00 68 1017.0
20260505124536 60 0.0 3.0 0.00 0.00 0.00 81 1016.8
20260505123557 59 0.0 4.0 0.00 0.00 0.00 83 1016.7
20260505122516 58 315 1.0 6.0 0.00 0.00 0.00 87 1016.7
20260505121536 55 0.0 4.0 0.00 0.00 0.00 92 1016.6
20260505120516 52 0.0 2.0 0.00 0.00 0.00 96 1016.6
20260505115516 50 0.0 0.0 0.00 0.00 0.00 95 1016.6
20260505114516 49 0.0 0.0 0.00 0.00 0.00 95 1016.6
20260505113516 48 0.0 0.0 0.00 0.00 0.00 95 1016.4
20260505112616 47 0.0 0.0 0.00 0.00 0.00 94 1016.4
20260505111516 46 0.0 0.0 0.00 0.00 0.00 94 1016.2
20260505110516 46 0.0 2.0 0.00 0.00 0.00 93 1016.4
20260505101556 46 0.0 0.0 0.00 0.00 0.00 91 1016.2
20260505100536 46 0.0 0.0 0.00 0.00 0.00 91 1016.1
20260505095556 46 0.0 0.0 0.00 0.00 0.00 90 1016.1
20260505094556 47 0.0 0.0 0.00 0.00 0.00 90 1016.1
20260505093516 47 0.0 0.0 0.00 0.00 0.00 89 1016.0
20260505092536 48 0.0 0.0 0.00 0.00 0.00 90 1015.9
20260505091616 48 0.0 0.0 0.00 0.00 0.00 88 1015.8
20260505090637 49 0.0 0.0 0.00 0.00 0.00 88 1015.8
20260505085516 49 0.0 0.0 0.00 0.00 0.00 88 1015.8
20260505084536 49 0.0 0.0 0.00 0.00 0.00 88 1015.5
20260505083516 50 0.0 0.0 0.00 0.00 0.00 86 1015.4
20260505082516 50 0.0 0.0 0.00 0.00 0.00 85 1015.4
20260505081516 51 0.0 0.0 0.00 0.00 0.00 84 1015.3
20260505080556 52 0.0 0.0 0.00 0.00 0.00 82 1015.4
20260505075536 53 0.0 0.0 0.00 0.00 0.00 80 1015.3
20260505074556 54 0.0 0.0 0.00 0.00 0.00 79 1015.3
20260505073536 55 0.0 0.0 0.00 0.00 0.00 77 1015.3
20260505072516 56 0.0 1.0 0.00 0.00 0.00 76 1015.2
20260505071516 56 0.0 1.0 0.00 0.00 0.00 75 1015.3
20260505070516 56 0.0 1.0 0.00 0.00 0.00 75 1015.2
20260505065516 57 0.0 0.0 0.00 0.00 0.00 74 1015.1
20260505064516 56 0.0 1.0 0.00 0.00 0.00 75 1015.1
20260505063516 55 0.0 3.0 0.00 0.00 0.00 76 1015.2
20260505062516 54 0.0 1.0 0.00 0.00 0.00 78 1015.0
20260505061556 53 0.0 0.0 0.00 0.00 0.00 78 1015.0
20260505060556 52 0.0 0.0 0.00 0.00 0.00 79 1014.9
20260505055556 51 0.0 0.0 0.00 0.00 0.00 79 1014.7
20260505054518 51 0.0 0.0 0.00 0.00 0.00 79 1014.8
20260505053538 51 0.0 0.0 0.00 0.00 0.00 78 1014.8
20260505052516 52 0.0 0.0 0.00 0.00 0.00 77 1014.9
20260505051518 52 0.0 0.0 0.00 0.00 0.00 76 1014.9
20260505050636 52 0.0 0.0 0.00 0.00 0.00 77 1015.0
20260505041517 52 0.0 0.0 0.00 0.00 0.00 73 1015.0
20260505040517 52 0.0 0.0 0.00 0.00 0.00 73 1014.9
20260505035516 53 0.0 0.0 0.00 0.00 0.00 72 1015.0
20260505034536 53 0.0 0.0 0.00 0.00 0.00 71 1015.0